Location: Home
(42.5358°N, 72.7383°W)
Time: 13:17:16
(UTC-05:00)

Tiros 1 - Pass Details

Date: 30 November 2021
Orbit: 629 x 664 km, 48.4° (Epoch: 26 January)

Event Time Altitude Azimuth Distance (km) Brightness Sun altitude
Rises 20:18:23 0° 248° (WSW) 2,923 11.1 -43.4°
Enters shadow 20:19:18 - 249° (WSW) 2,569 10.8 -43.6°
Reaches altitude 10° 20:20:42 10° 250° (WSW) 2,022 - -43.8°
Maximum altitude 20:25:22 74° 336° (NNW) 670 - -44.7°
Drops below altitude 10° 20:30:05 10° 62° (ENE) 2,051 - -45.5°
Sets 20:32:27 0° 64° (ENE) 2,969 - -46.0°
